User: anonymous   Login
Location: Young's Pond
(41.2695°N, 72.7766°W)
Time: 00:09:38
(UTC-04:00)
Language:

Spot 4 - Orbit

View from above orbital plane
View from above orbital plane
View from above satellite
View from above satellite

Ground track
Ground track

The orbit data is extracted from the following two-line orbital elements,

1 25260U 98017A   17289.56690746 +.00000053 +00000-0 +23774-4 0  9995
2 25260 098.3432 011.5081 0011704 259.1968 100.7913 14.53499980019480
Epoch (UTC): 16 October 2017 13:36:20
Eccentricity: 0.0011704
inclination: 98.3432°
perigee height: 706 km
apogee height: 722 km
right ascension of ascending node: 11.5081°
argument of perigee: 259.1968°
revolutions per day: 14.53499980
mean anomaly at epoch: 100.7913°
orbit number at epoch: 1948

The dashed part of the orbit path shows where the satellite is in the earth's shadow,  

DLR